This demonstration page uses our WeatherBlox Daily Observations layout. Learn more.

Left ArrowRight Arrow

Hourly Observations for September 21, 2022

Temp ( °F °C ) Dew Point ( °F °C ) Humidity (%) Winds ( mph kmh ) Pressure ( in mb ) Visibility ( mi km ) Precip ( " mm )
12:55 am 00:55 Clear 82 27.5 59 14.8 46 46 WNW 5 7 29.87 1011 10 16 0.00 0.00
4:55 am 04:55 Mostly Cloudy 72 22.3 56 13.1 56 56 N 15 24 29.95 1014 10 16 0.00 0.00
5:55 am 05:55 Clear 68 20 53 11.5 58 58 N 10 17 29.98 1015 10 16 0.00 0.00
6:55 am 06:55 Clear 66 18.8 52 11.1 61 61 N 15 24 30.03 1017 10 16 0.00 0.00
7:55 am 07:55 Sunny 66 18.7 48 8.9 53 53 N 7 11 30.08 1019 10 16 0.00 0.00
8:55 am 08:55 Mostly Sunny 66 18.8 47 8.4 51 51 NNE 7 11 30.10 1019 10 16 0.00 0.00
9:55 am 09:55 Mostly Sunny 68 19.8 43 6.2 41 41 NNE 10 17 30.13 1020 10 16 0.00 0.00
10:55 am 10:55 Cloudy 69 20.5 44 6.4 40 40 NE 9 15 30.13 1020 10 16 0.00 0.00
11:55 am 11:55 Mostly Cloudy 68 20.1 42 5.7 39 39 N 15 24 30.15 1021 10 16 0.00 0.00
12:55 pm 12:55 Mostly Cloudy 71 21.6 43 6.3 37 37 N 13 20 30.15 1021 10 16 0.00 0.00
1:55 pm 13:55 Mostly Cloudy 66 19.1 43 5.9 42 42 N 12 19 30.16 1022 10 16 0.00 0.00
2:55 pm 14:55 Mostly Cloudy 66 18.8 44 6.9 46 46 NW 13 20 30.19 1022 8 13 0.00 0.00
3:06 pm 15:06 Cloudy with Light Rain 66 19 45 7 46 46 NNW 16 26 30.16 1022 10 16 0.00 0.00
3:39 pm 15:39 Cloudy 66 19 45 7 46 46 WNW 7 11 30.20 1023 10 16 0.00 0.00
3:55 pm 15:55 Cloudy 67 19.2 46 7.6 47 47 NW 7 11 30.20 1023 10 16 0.01 0.13
4:07 pm 16:07 Cloudy with Light Rain 66 19 46 8 49 49 NW 9 15 30.19 1022 10 16 0.00 0.00
4:55 pm 16:55 Cloudy with Light Rain 65 18.5 43 6.3 45 45 N 10 17 30.17 1022 10 16 0.01 0.13
5:55 pm 17:55 Cloudy with Light Rain 62 16.4 46 7.6 56 56 N 9 15 30.17 1022 10 16 0.01 0.13
6:23 pm 18:23 Mostly Cloudy 63 17 45 7 52 52 NNW 15 24 30.17 1022 10 16 0.00 0.00
6:55 pm 18:55 Mostly Cloudy 62 16.8 44 6.9 52 52 NNW 13 20 30.18 1022 10 16 0.01 0.13
7:55 pm 19:55 Mostly Cloudy 62 16.4 44 6.5 52 52 NNW 14 22 30.19 1023 10 16 0.00 0.00
8:55 pm 20:55 Mostly Cloudy 61 16.3 43 6.1 51 51 NNW 12 19 30.22 1023 10 16 0.00 0.00
9:55 pm 21:55 Mostly Cloudy 61 16 44 6.7 54 54 NW 8 13 30.22 1024 10 16 0.00 0.00
10:55 pm 22:55 Mostly Cloudy 60 15.8 44 6.8 55 55 NNW 9 15 30.23 1024 10 16 0.00 0.00
11:55 pm 23:55 Cloudy 59 14.9 45 7.4 61 61 NW 9 15 30.24 1024 10 16 0.00 0.00

Powered by AerisWeather